Presure
136 161 164 162 168 154 144 164 156 163 157 145 164 158 171 174 174 169 151 166 162 196 187 203 203 174 171 177 218 178 220 205 230 212 208 222 191 166 165 171 165 160 166 154 186
142 156 164 161 153 146 155 151 151 154 151 164 169 168 164 163 157 152 185 161 147 190 171 204 152 206 190 223 209 215 195 230 175 200 226 215 231 172 179 168 162 164 164 170 136
159 127 153 161 122 133 152 143 161 163 138 133 170 166 169 167 164 174 173 162 182 146 197 188 196 184 151 230 222 186 236 138 112 272 221 229 226 252 179 160 171 169 159 165 169
155 151 144 160 153 139 160 154 151 135 161 159 123 155 172 173 170 163 163 179 180 154 150 151 153 204 164 237 242 187 175 272 177 187 256 221 223 241 265 180 159 170 169 157 169
146 153 160 162 143 154 165 132 116 149 144 152 156 136 169 158 157 170 189 185 193 191 167 159 187 154 198 183 157 213 243 277 310 323 143 225 228 231 203 258 181 162 170 170 160
155 147 162 160 151 154 132 145 153 152 162 136 155 168 145 165 149 182 156 185 198 166 157 208 186 195 275 235 165 293 155 205 279 280 236 236 227 241 247 260 202 187 167 171 168
154 146 166 139 148 155 151 109 162 153 145 155 170 172 171 160 169 177 178 139 182 197 122 121 130 133 313 131 230 135 359 358 339 328 83 249 227 299 270 257 285 200 176 164 173
151 152 161 159 146 147 157 161 154 153 155 159 166 169 158 161 174 187 138 135 195 153 216 277 274 407 393 384 378 139 202 363 101 330 321 302 239 253 76 185 266 291 197 182 175
153 160 162 156 152 160 147 162 145 149 152 154 156 167 173 163 177 173 184 195 197 226 262 290 397 407 384 377 378 364 349 357 343 321 313 184 229 229 259 105 79 89 210 176 159
155 133 162 159 153 154 141 158 151 152 152 163 168 153 168 176 176 176 185 193 202 237 293 298 416 401 394 390 333 338 366 346 209 141 286 322 63 215 268 241 226 206 188 167 184
145 161 143 143 160 158 163 123 144 150 144 147 156 173 171 180 168 179 183 194 231 275 273 427 408 390 366 348 336 331 331 322 336 325 139 331 322 301 269 269 246 180 288 217 203
155 163 145 159 160 162 165 163 162 164 148 152 165 162 175 181 178 190 191 212 243 275 433 403 271 379 370 346 340 336 319 330 318 322 332 305 308 303 283 281 253 268 261 298 211
172 157 146 159 160 161 159 169 150 165 142 166 168 164 173 176 170 188 190 224 248 399 428 400 387 379 366 353 340 323 331 330 326 320 239 278 113 187 290 232 244 258 262 283 222
163 136 163 154 143 162 157 169 154 166 150 164 157 178 178 165 187 179 217 224 270 377 418 396 382 372 361 351 343 331 322 319 321 322 316 328 270 312 279 287 272 245 258 271 287
163 154 163 163 161 155 154 160 163 153 157 151 178 169 181 192 186 190 225 231 261 378 430 401 385 366 360 358 345 329 327 327 327 315 321 319 332 308 304 294 282 262 259 186 273
181 169 155 162 168 166 151 164 154 141 165 174 176 174 185 178 190 194 228 227 245 421 413 405 401 385 361 359 353 345 334 326 209 328 324 315 327 311 304 217 293 271 261 252 266
164 170 167 173 162 140 169 132 151 148 174 174 173 180 184 184 204 205 210 226 245 436 416 416 401 377 368 368 362 358 344 336 327 332 68 323 330 318 293 295 270 66 188 257 164
169 170 172 133 172 166 160 160 149 153 140 179 169 179 181 177 196 206 219 234 246 422 406 421 397 387 380 373 366 360 361 350 349 338 333 311 89 326 295 146 294 277 70 96 252
140 151 166 131 163 143 169 160 170 154 175 162 165 174 193 183 196 212 212 232 249 414 415 408 401 391 387 386 377 368 364 358 367 123 343 224 343 80 288 290 139 277 258 261 230
180 139 131 152 143 163 161 154 173 167 181 186 158 178 186 190 199 211 224 234 238 417 389 353 372 397 386 379 371 370 366 364 371 382 388 71 346 326 77 284 298 279 282 269 259
172 168 163 160 177 138 164 181 164 180 159 164 160 174 210 197 200 215 228 231 240 417 378 357 381 355 390 382 376 370 166 368 383 418 434 448 226 335 239 244 289 299 267 281 268
157 146 137 136 167 164 174 167 178 164 190 159 181 169 201 199 194 220 223 231 246 388 379 343 344 334 337 384 374 376 364 376 401 431 437 440 466 87 314 194 288 292 293 286 266
168 159 156 151 164 172 140 167 179 184 160 174 158 171 194 200 190 217 224 230 250 362 370 335 313 361 322 390 403 375 390 404 408 436 425 140 75 284 319 306 302 285 292 287 282
123 176 135 142 166 174 174 180 181 192 160 194 159 179 207 190 208 224 217 229 251 385 392 347 316 313 315 387 389 397 377 390 415 415 401 391 419 385 332 316 104 298 288 287 284
174 178 149 139 179 156 171 183 189 171 196 204 160 197 201 206 211 220 227 239 258 390 364 343 319 314 315 345 384 385 394 410 417 403 392 375 390 364 338 214 136 298 287 288 283
183 158 148 160 189 146 149 186 166 177 187 160 173 202 215 203 207 216 216 240 254 388 368 342 316 322 303 393 382 382 387 417 404 392 384 367 365 392 373 326 321 289 150 289 286
135 197 181 138 151 136 170 193 153 201 195 187 188 182 205 212 211 223 215 248 337 386 370 346 325 374 303 358 386 391 389 405 386 377 375 369 365 153 365 338 319 305 295 290 291
Wind_Speed
24 27 24 25 29 30 40 32 31 35 33 41 45 49 55 55 54 46 57 48 51 74 57 77 67 68 66 79 69 74 60 62 48 69 82 83 98 92 83 87 81 73 76 72 75
29 24 27 26 29 33 31 36 38 36 35 44 52 54 51 52 51 50 68 60 59 73 65 86 75 83 74 92 80 80 82 66 92 89 76 90 89 94 90 87 80 80 77 77 67
23 25 29 30 27 32 34 33 40 40 43 40 58 59 62 62 52 68 71 53 79 69 91 73 84 63 69 100 90 79 61 55 17 74 90 87 91 93 93 78 89 88 77 78 79
27 30 34 32 32 32 39 34 33 38 49 54 40 52 72 75 61 69 64 85 81 70 76 75 82 96 78 104 92 60 67 70 81 81 75 96 100 93 91 98 86 88 82 78 81
30 30 35 35 31 39 45 36 34 43 38 47 60 52 69 66 71 73 91 91 97 95 82 81 90 72 89 70 57 68 85 72 80 77 50 96 98 99 78 96 100 84 86 85 81
30 33 38 36 36 40 32 45 46 50 62 43 60 72 60 68 68 90 61 94 107 81 75 116 89 73 96 77 80 72 64 69 77 77 82 103 105 105 91 90 111 101 86 87 86
33 34 41 26 38 46 44 31 57 56 47 68 75 75 78 73 86 93 92 70 99 113 48 48 58 63 91 63 65 66 76 78 80 80 33 101 112 84 89 98 99 109 94 87 89
34 38 42 42 37 44 50 57 55 55 66 72 73 79 69 77 96 106 68 61 116 71 123 120 107 72 71 66 63 67 66 66 28 82 83 94 101 90 22 63 100 104 107 97 92
36 43 45 44 44 51 44 58 51 58 66 68 71 76 90 84 101 93 113 121 121 124 125 109 75 67 62 52 51 54 55 51 67 79 86 54 101 104 104 45 17 26 118 98 86
39 29 47 48 46 51 41 57 57 62 67 80 84 68 90 100 102 100 112 120 125 128 116 93 56 55 49 43 58 61 56 54 73 79 84 90 14 111 108 110 93 89 76 93 102
35 45 38 39 53 54 61 36 52 63 58 66 80 92 95 104 95 109 112 121 132 131 119 49 47 46 46 53 56 61 59 58 54 65 69 85 89 99 109 112 110 95 108 123 113
41 46 43 53 55 59 64 66 67 74 63 72 88 89 98 105 106 118 119 126 133 126 40 42 35 41 41 46 46 46 57 57 62 65 70 76 81 98 107 109 110 113 109 108 119
50 46 42 53 56 58 61 69 53 75 55 84 90 90 100 103 100 114 118 129 131 57 32 38 36 34 33 39 47 52 52 56 59 68 66 67 46 66 100 93 112 113 111 108 123
47 35 53 48 45 62 61 68 64 77 71 85 84 99 104 95 113 108 129 127 132 66 33 33 30 33 33 40 43 48 60 58 63 64 68 70 58 89 95 104 112 110 112 107 108
49 48 54 57 56 57 62 69 74 73 81 77 95 96 104 110 111 118 126 126 132 61 28 31 32 33 36 41 45 53 56 57 63 67 68 69 71 80 91 97 104 112 111 73 110
56 56 51 57 61 64 61 70 70 59 85 91 94 96 102 103 114 120 125 123 129 36 35 33 24 29 40 43 47 52 57 62 41 66 65 69 77 79 87 64 98 109 112 112 110
52 54 58 63 57 43 67 44 68 74 87 89 90 96 100 106 118 123 121 122 130 30 30 24 25 31 38 39 42 49 60 65 68 67 11 73 79 70 84 86 83 13 70 116 68
53 57 60 35 61 63 67 70 70 76 63 88 88 95 100 101 114 121 121 128 130 33 33 19 25 33 37 42 45 50 54 61 66 70 75 69 14 67 80 69 87 101 19 24 118
43 46 56 37 58 59 68 70 79 71 82 84 85 92 103 103 111 120 115 125 134 37 30 26 24 28 31 40 45 46 50 54 60 15 75 49 64 16 80 82 28 100 113 115 105
57 46 45 57 52 65 69 67 78 78 88 89 83 94 100 104 112 119 120 127 125 35 45 48 34 29 32 38 43 49 51 55 59 60 64 9 66 70 8 87 90 101 103 112 118
52 55 59 62 67 53 70 80 75 82 72 83 85 93 107 104 112 117 124 125 130 36 48 49 38 40 31 38 40 44 36 53 52 44 47 55 27 72 63 84 91 92 105 105 113
43 52 49 60 64 66 74 73 79 75 90 84 93 92 106 104 107 124 121 129 142 49 46 53 48 43 42 34 40 45 51 55 48 41 34 46 48 4 84 57 94 94 96 102 113
49 51 58 62 61 71 65 75 80 85 81 83 87 93 98 106 101 124 123 128 141 67 51 55 53 44 44 34 35 36 39 45 37 31 31 25 4 62 85 89 93 98 97 100 107
36 58 51 64 63 71 73 79 82 89 81 94 88 90 108 100 116 127 118 131 141 52 45 53 54 51 47 32 29 27 35 42 33 29 37 42 38 42 88 92 25 98 100 100 102
60 63 63 49 71 65 67 79 82 77 92 95 89 99 102 109 114 125 132 140 139 51 55 54 54 53 52 44 31 27 29 31 34 31 42 41 41 61 87 55 43 97 100 100 101
64 54 63 69 71 61 71 79 70 75 81 86 85 101 112 103 112 120 118 143 135 53 55 54 54 54 53 27 33 30 30 25 34 35 40 40 45 40 56 93 95 90 47 98 100
58 67 59 53 59 61 76 87 74 92 93 87 93 93 106 117 118 129 114 143 88 53 57 56 56 46 50 39 27 28 28 22 34 37 41 41 42 14 57 90 91 93 95 94 96
Wind_Direction
285 304 318 313 321 294 286 315 305 310 295 301 315 308 316 313 313 307 278 289 279 312 304 309 305 269 273 254 295 260 261 239 253 239 239 240 237 233 228 228 230 226 227 227 224
299 310 319 311 296 290 300 288 298 308 298 318 320 315 311 304 305 303 315 291 272 312 295 312 267 308 289 307 288 279 249 262 246 243 234 236 239 235 231 229 227 229 225 227 227
305 293 306 316 293 303 305 300 313 318 286 288 322 318 318 316 301 316 318 289 309 273 315 305 308 285 261 304 301 267 288 245 232 257 236 234 235 238 231 232 229 229 223 226 226
299 302 297 310 308 301 310 313 306 288 322 320 298 311 322 319 315 306 313 316 315 269 275 275 266 305 272 300 280 267 259 266 257 251 239 236 235 235 234 229 232 228 226 225 228
304 308 307 308 306 309 312 309 300 320 300 313 315 301 319 317 310 317 319 318 315 317 288 276 303 269 294 275 266 274 261 255 250 240 255 232 233 232 231 226 229 228 227 226 226
301 302 303 310 313 312 305 315 320 316 321 303 318 318 307 319 306 320 304 320 320 304 297 312 305 296 302 281 269 256 252 249 247 247 248 227 231 228 229 225 227 227 227 225 226
301 305 301 305 313 318 322 296 321 323 316 320 318 319 321 322 322 321 321 286 321 318 272 275 282 277 298 252 254 244 252 247 240 237 203 222 229 222 224 224 223 224 225 226 225
305 308 306 313 324 318 320 318 323 322 320 320 321 323 325 325 324 323 299 299 318 300 315 317 315 283 280 275 268 245 254 249 248 235 231 225 222 220 215 226 221 219 223 224 224
304 305 306 315 319 314 326 317 328 323 323 326 324 326 325 328 323 326 321 318 318 316 322 316 293 283 280 284 278 265 252 247 239 237 232 231 221 221 220 229 230 227 221 223 225
307 307 306 311 318 319 326 322 324 323 325 323 322 328 327 324 325 326 321 320 319 321 323 317 284 280 278 268 255 258 255 246 244 244 234 230 279 232 216 219 221 219 222 223 221
309 303 319 322 314 317 315 305 327 324 333 331 324 324 327 325 328 324 323 320 321 330 327 288 284 279 268 260 253 251 249 244 238 235 252 231 221 215 218 216 219 221 216 218 219
304 300 317 311 315 317 316 318 319 319 329 328 322 329 327 325 325 322 321 323 328 331 294 288 277 279 268 260 261 249 247 246 237 233 232 233 225 218 214 215 218 221 216 214 220
295 306 318 312 316 318 319 316 329 320 334 323 325 329 327 326 326 323 324 325 333 320 294 287 285 273 262 259 251 249 246 242 240 235 236 230 233 222 218 217 217 219 219 215 218
302 329 306 320 326 316 323 319 323 321 331 326 329 327 326 330 324 327 327 329 338 326 299 288 280 273 259 253 249 247 242 240 238 233 229 226 219 221 220 215 216 218 220 216 214
303 314 307 311 316 320 323 323 323 328 326 332 327 328 326 326 323 325 330 334 342 329 301 291 277 269 264 250 245 242 242 239 235 233 229 227 222 220 221 218 214 217 218 224 215
294 301 319 315 314 317 327 321 327 339 325 326 327 325 327 325 327 329 336 337 342 314 303 293 270 263 259 258 247 243 238 239 247 233 229 224 224 213 221 224 215 215 216 217 216
307 299 310 307 320 334 320 343 333 333 326 326 327 327 329 329 331 332 332 339 344 314 312 287 262 259 260 258 254 249 244 238 236 235 287 222 223 208 219 217 218 243 220 215 221
304 307 309 337 319 322 325 325 331 329 340 325 325 329 328 329 332 334 336 343 345 321 317 302 271 269 263 258 256 253 250 246 238 232 232 225 267 209 213 211 216 213 249 238 214
330 315 316 343 326 334 322 323 321 332 326 325 329 330 328 331 333 336 337 343 347 321 313 305 294 279 267 257 258 255 250 248 246 266 232 237 216 308 212 217 218 213 215 216 216
301 335 343 325 335 325 324 330 320 323 324 326 332 331 331 335 336 337 340 345 347 316 321 327 319 299 273 268 265 260 258 255 253 251 241 341 217 212 251 215 215 212 213 215 216
311 314 318 322 318 343 321 313 321 324 331 326 332 333 333 338 336 340 342 346 346 317 324 325 316 318 271 268 267 265 247 264 265 267 259 245 214 211 216 216 215 213 215 214 216
324 332 339 343 322 320 315 322 323 322 324 328 330 332 336 338 337 341 342 345 346 327 324 327 328 326 320 278 280 270 267 266 268 272 246 240 233 144 211 217 212 214 211 212 216
317 321 318 321 321 315 338 320 324 323 332 330 332 331 337 338 336 342 342 344 345 334 326 328 330 320 326 288 279 275 278 271 268 260 229 241 237 211 210 212 209 213 211 211 214
343 312 328 328 320 317 318 321 323 323 326 327 331 333 338 335 341 342 341 344 345 325 320 324 328 329 328 304 291 295 276 274 265 235 216 225 225 199 207 208 236 208 212 210 213
316 315 323 334 317 321 323 322 323 326 325 327 329 336 341 339 342 343 343 344 344 323 324 325 326 328 328 318 302 299 291 267 258 228 220 216 221 205 206 211 221 207 210 210 211
309 322 325 318 315 332 330 324 325 332 330 325 327 340 337 339 342 342 341 343 344 322 321 323 327 326 325 297 295 297 291 273 250 229 224 215 219 219 206 206 206 207 223 209 210
331 308 317 337 325 345 329 322 330 325 325 335 332 335 342 342 341 342 339 342 336 320 321 321 325 310 324 307 298 303 289 268 238 232 222 219 217 227 212 208 202 206 208 209 209